QZS-3 (MICHIBIKI-3) (42917 NORAD) Tracking and Keplerian Element Data

This shows tracking and keplerian element data for the satellite.

Feedback or suggestion? Click here.




ElementValue
Catalog42917
NameQZS-3 (MICHIBIKI-3)
Epoch Orbit1199
Epoch Day328.00436328
Epoch Year2020
RAAN143.43
Inclination0.0631
Eccentricity0.0001299
Argument of Perigee85.9365
Mean Anonmoly321.7015
Mean Motion1.00273228
Decay Rate-3.48E-06
L11 42917U 17048A 20328.00436328 -.00000348 00000-0 00000+0 0 9999
L22 42917 0.0631 143.4300 0001299 85.9365 321.7015 1.00273228 11991

Live tracking and technical data element details for QZS-3 (MICHIBIKI-3) (NORAD 42917). QZS-3 (MICHIBIKI-3) can be tracked NOW for your location showing map with azimuth and elevation plus other details from your city location.

Track the satellite on the map from your city or location and see movement details for azimuth, elevation, latitude, longitude, range, height, and movement on the map or in text.







IsCatalogInMostPopularTable: catalog: 42917, numindb: 522
Update: records affected: 1



GetName: 42917 QZS-3 (MICHIBIKI-3)

Hit Count: updated at: Mon, 23 Nov 2020 22:05:56 GMT